Regional Weather Roundup
Issued by NWS Sterling, VA

Home | Current Version | Previous Version | Graphics & Text | Print | Product List | Glossary On
Versions: 1 2 3 4 5 6 7 8 9 10 11 12 13 14 15 16 17 18 19 20 21 22 23 24 25 26 27 28
000
ASUS41 KLWX 250110
RWRLWX

REGIONAL WEATHER ROUNDUP
NATIONAL WEATHER SERVICE BALTIMORE MD/WASHINGTON DC
800 PM EST TUE JAN 24 2017

Note: "FAIR" indicates few or no clouds below 12,000 feet
with no significant weather and/or obstructions to visibility.
 TC=TEMPERATURE CELSIUS

 * =Non NWS site. Station does not report precipitation (e.g. rain,
    snow, etc.), thunder, or fog.

DCZ001-MDZ009-015-VAZ040>042-051-053>054-250200-
WASHINGTON METRO

CITY           SKY/WX    TMP DP  RH WIND       PRES   REMARKS
WASHINGTON NAT MOCLDY    48  37  65 NW10G21   29.64R
DULLES         MOCLDY    46  37  71 NW23      29.64S
ANDREWS AFB    PTCLDY    45  35  68 W21G28    29.61R
FT BELVOIR     CLOUDY    48  38  67 NW20G25   29.64R
QUANTICO       CLOUDY    49  39  68 N8        29.67R
COLLEGE PARK*  PTCLDY    45  34  65 NW8G18    29.63R
LEESBURG*      MOCLDY    46  41  81 NW18G30   29.65R
MANASSAS*      CLOUDY   N/A N/A N/A NW17G25   29.67R
GAITHERSBURG*  PTCLDY    43  34  70 W28G39    29.65F

$$

MDZ006>007-011-014-250200-
BALTIMORE METRO

CITY           SKY/WX    TMP DP  RH WIND       PRES   REMARKS
BWI AIRPORT    MOCLDY    44  35  70 W10       29.60R
MD SCIENCE CTR   N/A     46  33  60 MISG      29.60R
MARTIN STATE   PTCLDY    45  37  76 W10G17    29.61R
ANNAPOLIS      CLOUDY    47  36  65 W12       29.59R
FORT MEADE*    PTCLDY    43  34  70 W15G24    29.64R

$$

MDZ012-015-019>023-250200-
MARYLAND EASTERN SHORE

CITY           SKY/WX    TMP DP  RH WIND       PRES   REMARKS
OCEAN CITY     CLOUDY    44  34  67 NW13G25   29.54R
SALISBURY      CLOUDY    45  35  68 NW16G25   29.56R
BAY BRIDGE AP* CLOUDY    45  36  70 NW13G21   29.59S
CAMBRIDGE*     CLOUDY    43  36  75 NW13      29.59R
EASTON*        CLOUDY    46  36  66 NW13G18   29.63R

$$

MDZ017>025-250200-
SOUTHERN MARYLAND

CITY           SKY/WX    TMP DP  RH WIND       PRES   REMARKS
PATUXENT RIVER PTCLDY    46  37  71 W13G22    29.61R
ST INIGOES     CLEAR     47  38  71 W12       29.61R
LEONARDTOWN*   MOCLDY    45  36  70 W9G16     29.64R

$$

MDZ003>005-250200-
NORTH CENTRAL MARYLAND

CITY           SKY/WX    TMP DP  RH WIND       PRES   REMARKS
FREDERICK*     NOT AVBL
HAGERSTOWN APT CLOUDY    43  34  70 NW17      29.66R
WESTMINSTER*     N/A     39  34  81 W12G18    29.61R

$$

MDZ501>502-250200-
WESTERN MARYLAND

CITY           SKY/WX    TMP DP  RH WIND       PRES   REMARKS
OAKLAND*       FOG       32  32 100 W13G20    29.70R VSB 1/4 WCI  22
CUMBERLAND*    MOCLDY    43  37  81 NW5       29.75S

$$

VAZ025>031-250200-
SHENANDOAH VALLEY

CITY           SKY/WX    TMP DP  RH WIND       PRES   REMARKS
WINCHESTER*    CLOUDY    45  36  70 W13G24    29.68S
FRONT ROYAL*   CLOUDY    46  36  66 NW17      29.66S
LURAY*         CLEAR     46  37  71 W9G20     29.68R
NEW MARKET*    CLOUDY    47  35  62 NW6       29.70S
STAUNTON*      CLOUDY    46  35  65 N6        29.73R
WAYNESBORO*    PTCLDY    44  34  67 CALM      29.70S

$$

WVZ021-048>050-054>055-250200-
EASTERN WEST VIRGINIA PANHANDLE

CITY           SKY/WX    TMP DP  RH WIND       PRES   REMARKS
MARTINSBURG    CLOUDY    44  36  73 W16       29.67R
PETERSBURG*    LGT RAIN  47  37  67 W7G20     29.74R

$$

VAZ036>039-050-250200-
CENTRAL FOOTHILLS

CITY           SKY/WX    TMP DP  RH WIND       PRES   REMARKS
CHARLOTTESVILL PTCLDY    51  36  56 VRB7G16   29.68R
CULPEPER*      CLOUDY    50  38  64 NW5       29.68R
ORANGE*          N/A     52  36  54 W16       29.68S
GORDONSVILLE*  MOCLDY    50  38  62 W6        29.67S
WARRENTON*     MOCLDY    50  36  57 W17G23    29.66R

$$

VAZ055>057-250200-
NORTH AND CENTRAL PIEDMONT

CITY           SKY/WX    TMP DP  RH WIND       PRES   REMARKS
FREDERICKSBRG* CLEAR     46  40  78 NW3       29.65R
STAFFORD*      MOCLDY    42  38  86 NW5       29.70R

$$

NCZ024-NYZ072-PAZ021-071-VAZ022-071-250200-
OTHER REGIONAL OBSERVATIONS

CITY           SKY/WX    TMP DP  RH WIND       PRES   REMARKS
NEW YORK CITY  LGT RAIN  37  34  89 NW7       29.43R
PHILADELPHIA   CLOUDY    42  31  64 NW18G25   29.53R
PITTSBURGH     CLOUDY    39  39 100 W13       29.76R
ROANOKE        CLOUDY    48  36  63 W12G26    29.79R
RICHMOND       CLEAR     51  37  58 W14       29.66R
RALEIGH        CLEAR     52  37  56 W5        29.77R

$$

ANZ530>537-250200-
MARINE OBSERVATIONS

STATION/POSITION TIME  TEMP    WIND        PRES
                       AIR SEA DIR/SP/G
                 (UTC) (F)     (DEG/KT/KT) (MB)
THOMAS PT LIGHT  0000   45 40  300/ 12/ 14   N/A
BALT KEY BRIDGE  0048   45     280/ 17/ 20 1001.7R
COVE POINT       0048   46     330/ 13/ 21 1003.1R
LEWISETTA        0048   49 44  320/ 19/ 24 1003.1R
SOLOMONS ISLAND  0048          300/  9/ 12   N/A
PINEY POINT      0042          320/ 27/ 34   N/A

$$





USA.gov is the U.S. government's official web portal to all federal, state and local government web resources and services.